EJU958Q LFBD-LFQQ

Flight info

Callsign EJU958Q
Flight time 1h 6m
Altitude 34000
Route CNA DCT ADABI DCT BOKNO UN858 VANAD UN874 ARSAF DCT EGOZE DCT PERON N874 CMB
Aircraft A320/M-SDE2E3FGHIRWXY/LB1

Departure

Time 2026-05-06 08:45
Airport Bordeaux–Mérignac Airport (LFBD)

Arrival

Time 2026-05-06 09:52
Airport Lille Airport (LFQQ)
Time Latitude Longitude Altitude Speed Heading
2026-05-06 08:20 44.82892 -0.70078 166 ft 0 kts 56°
2026-05-06 08:35 44.82892 -0.70081 166 ft 1 kts 57°
2026-05-06 08:35 44.82882 -0.70097 166 ft 2 kts 40°
2026-05-06 08:36 44.82869 -0.70110 166 ft 2 kts 27°
2026-05-06 08:36 44.82856 -0.70118 166 ft 2 kts 14°
2026-05-06 08:36 44.82840 -0.70117 166 ft 2 kts 334°
2026-05-06 08:36 44.82829 -0.70103 166 ft 2 kts 298°
2026-05-06 08:37 44.82825 -0.70085 167 ft 0 kts 281°
2026-05-06 08:37 44.82824 -0.70081 167 ft 0 kts 283°
2026-05-06 08:39 44.82825 -0.70086 167 ft 1 kts 283°
2026-05-06 08:39 44.82832 -0.70125 166 ft 5 kts 284°
2026-05-06 08:39 44.82847 -0.70196 165 ft 9 kts 287°
2026-05-06 08:40 44.82870 -0.70300 164 ft 12 kts 287°
2026-05-06 08:40 44.82894 -0.70423 162 ft 10 kts 270°
2026-05-06 08:40 44.82858 -0.70520 162 ft 11 kts 261°
2026-05-06 08:40 44.82878 -0.70638 162 ft 12 kts 286°
2026-05-06 08:41 44.82904 -0.70763 162 ft 13 kts 285°
2026-05-06 08:41 44.82930 -0.70892 163 ft 13 kts 285°
2026-05-06 08:41 44.82987 -0.70906 163 ft 11 kts 39°
2026-05-06 08:41 44.83046 -0.70824 162 ft 12 kts 45°
2026-05-06 08:42 44.83114 -0.70727 161 ft 14 kts 45°
2026-05-06 08:42 44.83185 -0.70625 160 ft 15 kts 45°
2026-05-06 08:42 44.83266 -0.70509 160 ft 16 kts 45°
2026-05-06 08:42 44.83351 -0.70389 160 ft 17 kts 45°
2026-05-06 08:43 44.83436 -0.70267 160 ft 17 kts 45°
2026-05-06 08:43 44.83525 -0.70139 159 ft 18 kts 45°
2026-05-06 08:43 44.83607 -0.70026 159 ft 12 kts 41°
2026-05-06 08:43 44.83675 -0.70014 159 ft 8 kts 337°
2026-05-06 08:44 44.83732 -0.70048 158 ft 10 kts 336°
2026-05-06 08:44 44.83802 -0.70090 158 ft 11 kts 337°
2026-05-06 08:44 44.83847 -0.70129 158 ft 2 kts 246°
2026-05-06 08:44 44.83836 -0.70146 158 ft 2 kts 224°
2026-05-06 08:45 44.83743 -0.70277 158 ft 50 kts 225°
2026-05-06 08:45 44.83333 -0.70864 162 ft 115 kts 226°
2026-05-06 08:45 44.82650 -0.71849 273 ft 156 kts 225°
2026-05-06 08:45 44.81913 -0.72907 955 ft 150 kts 227°
2026-05-06 08:46 44.81190 -0.73941 1598 ft 151 kts 229°
2026-05-06 08:46 44.80450 -0.74993 2246 ft 152 kts 230°
2026-05-06 08:46 44.79668 -0.76111 2911 ft 154 kts 230°
2026-05-06 08:46 44.78853 -0.77329 3567 ft 156 kts 240°
2026-05-06 08:47 44.78565 -0.78898 4007 ft 165 kts 279°
2026-05-06 08:47 44.79078 -0.80427 4416 ft 182 kts 314°
2026-05-06 08:47 44.80324 -0.81233 4819 ft 206 kts 350°
2026-05-06 08:47 44.82077 -0.81335 5272 ft 232 kts 354°
2026-05-06 08:48 44.83810 -0.81445 5807 ft 249 kts 354°
2026-05-06 08:48 44.85585 -0.81570 6420 ft 261 kts 354°
2026-05-06 08:48 44.87477 -0.81706 7232 ft 266 kts 355°
2026-05-06 08:48 44.89443 -0.81847 8111 ft 269 kts 355°
2026-05-06 08:49 44.91333 -0.81983 8917 ft 273 kts 356°
2026-05-06 08:49 44.93205 -0.81648 9652 ft 280 kts 18°
2026-05-06 08:49 44.94977 -0.80505 10429 ft 283 kts 24°
2026-05-06 08:49 44.96909 -0.79178 11169 ft 290 kts 24°
2026-05-06 08:50 44.98714 -0.77936 11885 ft 293 kts 24°
2026-05-06 08:50 45.00563 -0.76664 12567 ft 298 kts 24°
2026-05-06 08:50 45.02421 -0.75386 13228 ft 302 kts 24°
2026-05-06 08:50 45.04310 -0.74087 13899 ft 305 kts 24°
2026-05-06 08:51 45.06227 -0.72769 14580 ft 308 kts 24°
2026-05-06 08:51 45.08154 -0.71442 15243 ft 310 kts 24°
2026-05-06 08:51 45.10092 -0.70107 15887 ft 313 kts 24°
2026-05-06 08:51 45.12044 -0.68762 16530 ft 316 kts 24°
2026-05-06 08:52 45.14041 -0.67385 17162 ft 318 kts 24°
2026-05-06 08:52 45.16047 -0.66002 17775 ft 321 kts 24°
2026-05-06 08:52 45.18058 -0.64613 18384 ft 323 kts 24°
2026-05-06 08:52 45.20007 -0.63267 18964 ft 325 kts 24°
2026-05-06 08:53 45.22082 -0.61831 19553 ft 328 kts 24°
2026-05-06 08:53 45.24157 -0.60396 20117 ft 331 kts 24°
2026-05-06 08:53 45.26218 -0.58969 20674 ft 333 kts 24°
2026-05-06 08:53 45.28291 -0.57532 21231 ft 335 kts 24°
2026-05-06 08:54 45.30383 -0.56079 21775 ft 338 kts 24°
2026-05-06 08:54 45.32505 -0.54604 22298 ft 340 kts 24°
2026-05-06 08:54 45.34649 -0.53112 22823 ft 343 kts 24°
2026-05-06 08:54 45.36782 -0.51628 23323 ft 345 kts 24°
2026-05-06 08:55 45.38933 -0.50132 23825 ft 348 kts 24°
2026-05-06 08:55 45.41176 -0.48571 24329 ft 350 kts 24°
2026-05-06 08:55 45.43450 -0.46986 24811 ft 352 kts 24°
2026-05-06 08:55 45.45779 -0.45361 25285 ft 354 kts 24°
2026-05-06 08:56 45.48143 -0.43711 25773 ft 355 kts 24°
2026-05-06 08:56 45.50470 -0.42082 26210 ft 357 kts 24°
2026-05-06 08:56 45.52783 -0.40463 26612 ft 359 kts 24°
2026-05-06 08:56 45.55140 -0.38810 27012 ft 362 kts 24°
2026-05-06 08:57 45.57458 -0.37182 27406 ft 363 kts 25°
2026-05-06 08:57 45.59815 -0.35527 27797 ft 365 kts 25°
2026-05-06 08:57 45.62220 -0.33837 28177 ft 367 kts 25°
2026-05-06 08:57 45.64632 -0.32127 28548 ft 369 kts 26°
2026-05-06 08:58 45.66954 -0.30269 28906 ft 371 kts 30°
2026-05-06 08:58 45.69278 -0.28182 29248 ft 373 kts 31°
2026-05-06 08:58 45.71621 -0.26030 29574 ft 376 kts 31°
2026-05-06 08:58 45.73948 -0.23884 29901 ft 378 kts 31°
2026-05-06 08:59 45.76400 -0.21624 30217 ft 380 kts 32°
2026-05-06 08:59 45.78771 -0.19439 30483 ft 382 kts 32°
2026-05-06 08:59 45.81184 -0.17213 30744 ft 385 kts 32°
2026-05-06 08:59 45.83657 -0.14929 31023 ft 387 kts 32°
2026-05-06 09:00 45.86015 -0.12751 31274 ft 390 kts 32°
2026-05-06 09:00 45.88297 -0.10641 31511 ft 392 kts 32°
2026-05-06 09:00 45.90738 -0.08383 31758 ft 394 kts 32°
2026-05-06 09:00 45.93252 -0.06053 31996 ft 396 kts 32°
2026-05-06 09:01 45.95914 -0.03583 32239 ft 398 kts 32°
2026-05-06 09:01 45.98571 -0.01115 32451 ft 401 kts 32°
2026-05-06 09:01 46.01224 0.01352 32657 ft 404 kts 32°
2026-05-06 09:01 46.03889 0.03835 32871 ft 406 kts 32°
2026-05-06 09:02 46.06593 0.06356 33069 ft 409 kts 32°
2026-05-06 09:02 46.09343 0.08922 33260 ft 411 kts 32°
2026-05-06 09:02 46.12051 0.11452 33430 ft 414 kts 32°
2026-05-06 09:02 46.14754 0.13980 33596 ft 416 kts 32°
2026-05-06 09:03 46.17476 0.16529 33765 ft 418 kts 32°
2026-05-06 09:03 46.20250 0.19130 33884 ft 420 kts 32°
2026-05-06 09:03 46.22985 0.21696 33908 ft 420 kts 32°
2026-05-06 09:04 46.28516 0.26899 33910 ft 420 kts 32°
2026-05-06 09:04 46.34002 0.32072 33901 ft 419 kts 32°
2026-05-06 09:05 46.39463 0.37234 33907 ft 419 kts 32°
2026-05-06 09:05 46.44967 0.42448 33929 ft 419 kts 33°
2026-05-06 09:06 46.50359 0.47471 33914 ft 418 kts 30°
2026-05-06 09:06 46.55834 0.51565 33924 ft 418 kts 23°
2026-05-06 09:07 46.61599 0.54686 33908 ft 418 kts 17°
2026-05-06 09:07 46.67749 0.56945 33905 ft 418 kts 13°
2026-05-06 09:08 46.75063 0.59327 33924 ft 419 kts 13°
2026-05-06 09:08 46.80166 0.60999 33918 ft 419 kts 13°
2026-05-06 09:09 46.86175 0.62985 33905 ft 418 kts 13°
2026-05-06 09:09 46.92498 0.65081 33932 ft 417 kts 14°
2026-05-06 09:10 46.98485 0.67073 33926 ft 418 kts 14°
2026-05-06 09:10 47.04527 0.68878 33939 ft 418 kts
2026-05-06 09:11 47.10828 0.69817 33934 ft 418 kts
2026-05-06 09:11 47.16892 0.70432 33939 ft 418 kts
2026-05-06 09:12 47.22795 0.71035 33951 ft 417 kts
2026-05-06 09:12 47.28859 0.71668 33913 ft 417 kts
2026-05-06 09:13 47.35265 0.72339 33938 ft 417 kts
2026-05-06 09:13 47.41640 0.73008 33913 ft 417 kts
2026-05-06 09:14 47.47805 0.73983 33926 ft 416 kts 11°
2026-05-06 09:14 47.53808 0.75969 33922 ft 414 kts 17°
2026-05-06 09:15 47.59672 0.78767 33945 ft 414 kts 20°
2026-05-06 09:15 47.65602 0.81713 33913 ft 414 kts 19°
2026-05-06 09:16 47.71455 0.84613 33920 ft 415 kts 19°
2026-05-06 09:16 47.77284 0.87498 33926 ft 414 kts 19°
2026-05-06 09:17 47.82965 0.90317 33924 ft 413 kts 19°
2026-05-06 09:17 47.88635 0.93163 33911 ft 413 kts 20°
2026-05-06 09:18 47.94350 0.96055 33919 ft 413 kts 20°
2026-05-06 09:18 48.00185 0.99013 33922 ft 414 kts 19°
2026-05-06 09:19 48.05945 1.01937 33920 ft 415 kts 19°
2026-05-06 09:19 48.11653 1.04841 33924 ft 413 kts 20°
2026-05-06 09:20 48.17263 1.07704 33922 ft 412 kts 20°
2026-05-06 09:20 48.23032 1.10653 33901 ft 412 kts 20°
2026-05-06 09:21 48.28920 1.13650 33930 ft 413 kts 19°
2026-05-06 09:21 48.34745 1.16623 33913 ft 413 kts 19°
2026-05-06 09:22 48.40735 1.19688 33928 ft 413 kts 19°
2026-05-06 09:22 48.46745 1.22772 33916 ft 412 kts 20°
2026-05-06 09:23 48.52685 1.25830 33916 ft 413 kts 20°
2026-05-06 09:23 48.58696 1.28896 33919 ft 413 kts 19°
2026-05-06 09:24 48.64803 1.31962 33912 ft 413 kts 19°
2026-05-06 09:24 48.71009 1.35092 33917 ft 413 kts 19°
2026-05-06 09:25 48.77185 1.38218 33914 ft 413 kts 19°
2026-05-06 09:25 48.83279 1.41314 33916 ft 412 kts 19°
2026-05-06 09:26 48.89388 1.44441 33914 ft 413 kts 20°
2026-05-06 09:26 48.95135 1.48492 33939 ft 412 kts 31°
2026-05-06 09:27 49.00314 1.54052 33925 ft 411 kts 41°
2026-05-06 09:27 49.04666 1.60698 33923 ft 411 kts 48°
2026-05-06 09:28 49.08815 1.67844 33920 ft 411 kts 49°
2026-05-06 09:28 49.12913 1.74922 33918 ft 412 kts 49°
2026-05-06 09:29 49.16944 1.81878 33889 ft 413 kts 49°
2026-05-06 09:29 49.20962 1.88822 33592 ft 413 kts 49°
2026-05-06 09:29 49.23091 1.92506 32715 ft 420 kts 50°
2026-05-06 09:30 49.25321 1.96371 31969 ft 420 kts 50°
2026-05-06 09:30 49.27533 2.00211 31288 ft 418 kts 50°
2026-05-06 09:30 49.29772 2.04108 30653 ft 412 kts 51°
2026-05-06 09:30 49.31947 2.07907 30077 ft 405 kts 50°
2026-05-06 09:31 49.34076 2.11628 29530 ft 399 kts 50°
2026-05-06 09:31 49.36212 2.15361 28886 ft 395 kts 50°
2026-05-06 09:31 49.38295 2.19006 28175 ft 392 kts 50°
2026-05-06 09:31 49.40375 2.22650 27442 ft 391 kts 50°
2026-05-06 09:32 49.42351 2.26118 26737 ft 389 kts 50°
2026-05-06 09:32 49.44211 2.29387 26065 ft 388 kts 50°
2026-05-06 09:32 49.46153 2.32804 25363 ft 386 kts 50°
2026-05-06 09:32 49.48030 2.36114 24681 ft 385 kts 50°
2026-05-06 09:33 49.49886 2.39389 24012 ft 383 kts 49°
2026-05-06 09:33 49.51660 2.42524 23384 ft 382 kts 49°
2026-05-06 09:33 49.53392 2.45585 22754 ft 381 kts 49°
2026-05-06 09:33 49.55248 2.48479 22135 ft 380 kts 41°
2026-05-06 09:34 49.57343 2.50961 21538 ft 379 kts 33°
2026-05-06 09:34 49.59514 2.53112 21120 ft 373 kts 32°
2026-05-06 09:34 49.61721 2.55227 20554 ft 372 kts 31°
2026-05-06 09:34 49.63905 2.57318 20031 ft 369 kts 31°
2026-05-06 09:35 49.66270 2.59594 19505 ft 365 kts 31°
2026-05-06 09:35 49.68501 2.61750 19035 ft 362 kts 31°
2026-05-06 09:35 49.70611 2.63796 18595 ft 358 kts 31°
2026-05-06 09:35 49.72777 2.65901 18143 ft 354 kts 31°
2026-05-06 09:36 49.74954 2.68018 17706 ft 350 kts 31°
2026-05-06 09:36 49.77021 2.70032 17280 ft 347 kts 31°
2026-05-06 09:36 49.79085 2.72045 16860 ft 343 kts 31°
2026-05-06 09:36 49.81075 2.73989 16455 ft 340 kts 31°
2026-05-06 09:37 49.83000 2.75872 16065 ft 337 kts 32°
2026-05-06 09:37 49.84967 2.77798 15668 ft 333 kts 32°
2026-05-06 09:37 49.86902 2.79694 15278 ft 330 kts 32°
2026-05-06 09:37 49.88827 2.81582 14889 ft 326 kts 32°
2026-05-06 09:38 49.90737 2.83458 14493 ft 323 kts 32°
2026-05-06 09:38 49.92617 2.85302 14097 ft 320 kts 32°
2026-05-06 09:38 49.94499 2.87139 13699 ft 317 kts 32°
2026-05-06 09:38 49.96344 2.88944 13305 ft 314 kts 32°
2026-05-06 09:39 49.98195 2.90747 12905 ft 311 kts 31°
2026-05-06 09:39 50.00184 2.91979 12477 ft 309 kts
2026-05-06 09:39 50.02296 2.91884 12069 ft 308 kts 350°
2026-05-06 09:39 50.04384 2.91176 11685 ft 305 kts 349°
2026-05-06 09:40 50.06437 2.90463 11291 ft 303 kts 349°
2026-05-06 09:40 50.08622 2.89711 10871 ft 300 kts 349°
2026-05-06 09:40 50.13004 2.88225 10014 ft 296 kts 349°
2026-05-06 09:41 50.15010 2.87549 9729 ft 289 kts 349°
2026-05-06 09:41 50.16964 2.86890 9345 ft 282 kts 349°
2026-05-06 09:41 50.18842 2.86257 8981 ft 270 kts 349°
2026-05-06 09:41 50.20672 2.85640 8631 ft 266 kts 349°
2026-05-06 09:42 50.22417 2.85053 8296 ft 263 kts 349°
2026-05-06 09:42 50.24301 2.84419 7937 ft 261 kts 349°
2026-05-06 09:42 50.26068 2.83824 7599 ft 260 kts 349°
2026-05-06 09:42 50.27836 2.83229 7259 ft 258 kts 349°
2026-05-06 09:43 50.29590 2.82639 6920 ft 257 kts 349°
2026-05-06 09:43 50.31337 2.82050 6584 ft 256 kts 349°
2026-05-06 09:43 50.33083 2.81460 6248 ft 254 kts 349°
2026-05-06 09:43 50.34785 2.80885 5925 ft 253 kts 349°
2026-05-06 09:44 50.36510 2.80301 5712 ft 245 kts 349°
2026-05-06 09:44 50.38144 2.79747 5639 ft 233 kts 350°
2026-05-06 09:44 50.39693 2.79221 5556 ft 222 kts 350°
2026-05-06 09:44 50.41200 2.78737 5350 ft 218 kts 351°
2026-05-06 09:45 50.42685 2.78308 5106 ft 215 kts 352°
2026-05-06 09:45 50.44146 2.77891 4893 ft 212 kts 352°
2026-05-06 09:45 50.45593 2.77476 4636 ft 210 kts 352°
2026-05-06 09:45 50.47024 2.77062 4389 ft 208 kts 352°
2026-05-06 09:46 50.48436 2.76651 4174 ft 204 kts 352°
2026-05-06 09:46 50.49814 2.76269 3961 ft 199 kts 357°
2026-05-06 09:46 50.51118 2.76674 3751 ft 193 kts 33°
2026-05-06 09:46 50.51981 2.78272 3558 ft 191 kts 65°
2026-05-06 09:47 50.52296 2.80285 3361 ft 185 kts 73°
2026-05-06 09:47 50.52560 2.82208 3218 ft 174 kts 72°
2026-05-06 09:47 50.52812 2.84012 3092 ft 162 kts 72°
2026-05-06 09:47 50.53050 2.85684 2983 ft 156 kts 72°
2026-05-06 09:48 50.53289 2.87333 2790 ft 156 kts 72°
2026-05-06 09:48 50.53532 2.89000 2584 ft 156 kts 72°
2026-05-06 09:48 50.53773 2.90672 2377 ft 155 kts 72°
2026-05-06 09:48 50.54013 2.92334 2171 ft 155 kts 72°
2026-05-06 09:49 50.54250 2.93979 1975 ft 154 kts 71°
2026-05-06 09:49 50.54479 2.95586 1771 ft 142 kts 71°
2026-05-06 09:49 50.54688 2.97058 1567 ft 135 kts 71°
2026-05-06 09:49 50.54896 2.98483 1398 ft 134 kts 71°
2026-05-06 09:50 50.55104 2.99915 1219 ft 134 kts 72°
2026-05-06 09:50 50.55295 3.01357 1049 ft 134 kts 74°
2026-05-06 09:50 50.55485 3.02810 870 ft 134 kts 72°
2026-05-06 09:50 50.55701 3.04243 683 ft 133 kts 72°
2026-05-06 09:51 50.55912 3.05679 510 ft 133 kts 74°
2026-05-06 09:51 50.56109 3.07104 343 ft 133 kts 73°
2026-05-06 09:51 50.56313 3.08518 182 ft 132 kts 73°
2026-05-06 09:51 50.56501 3.09780 154 ft 82 kts 77°
2026-05-06 09:52 50.56598 3.10467 148 ft 46 kts 80°
2026-05-06 09:52 50.56634 3.10743 145 ft 13 kts 78°
2026-05-06 09:52 50.56685 3.10806 144 ft 10 kts 348°
2026-05-06 09:52 50.56755 3.10780 145 ft 10 kts 347°
2026-05-06 09:53 50.56810 3.10760 147 ft 6 kts 346°
2026-05-06 09:53 50.56856 3.10744 147 ft 6 kts 348°
2026-05-06 09:53 50.56905 3.10728 148 ft 7 kts 348°
2026-05-06 09:53 50.56953 3.10712 149 ft 6 kts 347°
2026-05-06 09:54 50.56998 3.10695 150 ft 6 kts 338°
2026-05-06 09:54 50.57027 3.10643 151 ft 6 kts 312°
2026-05-06 09:54 50.57061 3.10624 152 ft 4 kts 348°
2026-05-06 09:54 50.57076 3.10619 152 ft 1 kts 348°
2026-05-06 09:55 50.57085 3.10616 152 ft 1 kts 348°
2026-05-06 09:55 50.57094 3.10613 152 ft 1 kts 346°
2026-05-06 09:55 50.57102 3.10610 152 ft 1 kts 346°